Theta_e
353 352 351 350 350 350 351 351 351 349 350 353 355 353 351 351 353 356 356 356 355 354 353 350 351 351 350 350 350 351 352 353 353 353 354 355 356 358 363 367 367 367 367 368 368 367 366 366 366 357 354 353 352 355 357 358 357 357 356 357 360 359 356 355 353 352 355 356 357 357 357 357 357 357 357 357 358 358 358 357 356 356 356 356 356
353 352 351 351 351 350 352 352 353 352 354 352 353 352 351 351 351 352 352 354 354 354 356 350 347 347 347 348 348 349 350 350 351 351 352 353 356 358 363 365 367 368 368 368 369 369 368 368 363 358 357 357 357 356 357 358 359 358 357 358 359 359 352 350 349 351 355 356 356 356 356 356 356 356 355 357 358 357 357 356 356 356 357 356 355
354 353 353 353 352 351 351 352 351 350 355 354 355 355 354 354 353 353 351 350 350 349 354 349 347 344 346 347 349 349 348 350 349 349 349 350 350 352 355 362 366 368 369 369 369 369 369 368 361 356 358 360 358 357 359 360 359 359 358 358 359 358 352 347 349 351 353 355 355 356 355 356 356 356 357 357 357 356 356 356 356 356 356 355 355
356 355 355 354 353 351 351 350 350 351 357 354 354 357 359 358 357 354 350 350 349 349 349 345 345 344 346 347 353 350 350 349 350 351 351 351 351 351 351 351 356 360 364 368 370 370 368 368 359 355 356 357 358 359 360 361 361 360 361 360 359 357 352 347 352 352 351 352 352 352 351 354 355 356 356 355 356 356 355 355 355 356 355 355 355
356 356 359 357 356 353 350 352 351 352 355 358 361 358 356 356 356 354 351 350 350 350 349 350 345 346 347 350 351 352 352 350 350 349 348 348 349 349 349 350 351 355 358 361 364 367 369 367 362 357 354 357 357 358 360 362 362 362 362 361 358 354 350 348 343 346 350 349 350 354 351 353 354 355 356 356 355 356 355 354 354 356 354 354 354
357 356 356 355 354 352 350 349 351 353 355 359 360 357 355 357 357 357 363 352 349 350 350 347 347 350 348 349 350 352 351 349 350 349 348 347 349 349 348 349 350 351 351 356 359 360 360 364 366 365 359 359 360 361 362 363 363 362 361 361 359 349 345 348 347 346 350 351 353 353 351 352 354 354 354 355 355 355 355 354 353 353 353 353 353
358 357 356 355 352 350 349 349 350 355 356 358 358 357 357 354 359 354 356 355 354 353 350 347 347 347 347 349 349 350 351 349 350 349 348 349 348 346 347 347 347 347 348 349 353 357 359 360 361 363 360 359 360 362 363 363 364 364 362 361 361 352 345 349 345 346 347 348 351 351 353 354 354 353 351 351 353 354 354 354 354 352 353 353 353
356 357 356 354 351 349 349 351 352 358 360 361 358 354 354 354 357 355 353 352 358 352 354 353 351 349 349 350 349 351 350 349 347 346 346 347 348 347 347 347 347 348 352 349 348 351 356 358 360 362 363 362 362 363 365 365 364 363 362 361 361 357 347 348 345 347 347 347 350 352 353 353 354 351 351 351 352 353 354 354 353 353 353 353 353
356 357 355 353 350 349 349 351 358 359 361 358 355 359 355 355 354 362 354 355 352 351 351 352 352 351 349 347 347 350 349 349 347 346 346 346 346 345 345 346 347 353 355 354 352 353 353 354 357 362 364 363 363 363 365 367 365 364 362 361 362 354 347 348 346 344 347 348 348 353 353 354 351 350 351 351 352 352 353 354 354 353 353 353 353
355 356 355 353 351 350 351 354 359 358 359 357 357 355 354 354 355 354 357 354 352 352 351 351 350 350 352 350 351 349 348 348 347 352 350 348 348 346 346 346 347 349 350 348 347 348 349 351 355 359 365 366 365 365 366 366 366 365 363 361 361 353 344 347 343 344 349 350 352 353 352 351 350 350 351 351 352 352 353 353 353 353 353 353 354
356 357 356 354 354 352 352 354 359 358 359 356 353 359 359 355 355 355 357 357 356 354 353 352 352 353 351 350 349 351 351 347 350 349 348 347 350 351 352 353 352 351 349 348 350 348 350 352 357 359 362 362 366 367 366 365 363 361 362 360 358 349 347 347 345 347 350 352 353 353 351 350 349 350 351 351 352 352 352 353 353 354 353 353 354
356 356 356 357 354 352 352 353 358 360 356 353 353 351 350 349 350 359 357 356 359 357 356 354 351 348 349 350 349 349 350 352 352 349 351 352 353 353 351 352 353 352 350 347 348 349 351 354 357 356 358 359 362 366 366 363 363 363 361 359 358 353 346 346 346 346 350 351 351 350 352 352 349 349 350 352 352 352 352 352 353 354 354 354 354
357 356 355 358 358 352 352 354 357 359 357 355 354 352 352 352 356 356 357 354 355 354 354 349 347 346 345 345 346 348 351 357 355 354 352 352 353 352 354 354 353 352 350 347 347 348 352 355 357 358 359 359 359 362 364 362 363 362 360 358 357 356 352 349 347 348 351 352 351 352 351 350 348 349 351 351 352 352 352 353 353 354 354 354 354
357 357 359 355 356 353 352 353 356 359 358 360 357 363 362 358 358 354 355 355 354 355 354 349 346 342 342 342 344 345 350 350 353 355 353 353 353 355 355 353 354 351 351 346 345 346 351 355 358 359 358 358 359 358 360 363 363 360 358 357 356 354 353 351 351 350 351 352 352 352 350 349 349 349 351 350 351 351 351 352 353 354 355 354 354
353 359 357 355 356 356 354 354 355 358 360 357 357 359 358 357 357 355 354 352 354 356 356 351 346 345 343 340 337 337 345 346 352 349 350 355 354 353 354 352 352 351 352 350 347 346 350 355 355 355 355 356 356 358 357 357 356 354 355 355 354 354 351 350 351 352 352 353 352 351 349 349 349 349 349 349 350 350 351 352 354 354 353 354 354
353 355 358 356 355 356 356 357 357 359 358 356 354 355 355 355 356 359 354 351 350 351 361 351 352 347 342 338 336 336 333 338 340 345 348 351 351 350 350 350 351 352 354 352 349 349 352 351 353 355 357 356 356 355 354 354 353 355 356 355 345 350 350 352 352 352 353 352 350 349 350 350 350 349 347 348 348 349 350 352 353 353 354 354 354
352 355 358 356 355 355 355 356 357 358 360 356 354 354 355 355 355 356 356 353 350 350 353 353 350 351 348 340 338 335 334 336 339 343 345 349 351 352 353 354 352 353 353 353 356 356 353 354 356 357 358 358 356 354 353 353 355 358 358 356 353 354 350 352 353 352 352 350 349 349 350 350 349 347 347 347 347 348 349 351 353 353 353 353 353
352 354 355 359 355 354 355 356 357 358 359 358 357 357 357 358 358 357 356 355 354 350 349 354 357 357 350 348 347 339 337 339 338 337 347 355 349 349 350 352 353 353 355 356 357 356 363 356 356 356 358 358 358 358 356 355 356 357 357 357 356 356 353 352 353 353 351 348 349 350 350 349 349 348 348 348 347 348 349 350 352 353 353 353 354
353 354 355 358 357 355 355 356 357 358 362 360 358 358 358 358 360 357 356 358 354 350 348 348 350 352 352 349 348 349 343 341 339 339 337 345 349 349 350 349 352 353 354 356 361 360 362 360 358 356 355 356 358 358 358 358 358 358 357 356 356 356 354 353 352 352 348 348 348 350 350 349 349 348 348 348 348 349 349 350 352 352 353 353 354
354 354 355 356 358 355 355 355 356 357 359 361 359 358 359 359 361 360 358 357 354 351 349 348 347 349 358 353 352 354 351 346 344 340 340 336 341 346 351 346 351 353 353 355 359 357 360 359 358 355 354 354 356 356 356 357 359 360 359 359 358 356 354 353 352 352 348 348 349 349 349 349 349 349 348 348 347 348 348 351 352 353 354 354 353
354 354 354 354 359 357 355 355 356 356 361 360 359 358 357 357 357 356 355 356 355 353 351 350 348 349 351 352 350 351 349 348 347 343 343 338 339 339 341 347 351 351 352 356 357 359 357 353 359 358 356 354 354 354 356 357 357 358 359 359 359 358 356 354 354 352 349 349 349 349 350 349 349 349 349 348 348 348 350 352 352 353 354 354 354
353 354 353 353 355 358 357 355 356 356 361 360 359 359 358 358 358 356 356 355 356 357 352 351 351 352 351 352 350 350 349 347 347 346 345 343 339 340 341 341 342 347 351 352 356 354 355 354 353 355 355 353 352 353 354 356 357 357 358 359 359 359 357 356 355 354 350 349 350 350 349 349 349 349 349 349 350 350 351 352 353 354 353 354 354
351 353 352 352 353 356 357 356 357 360 361 360 359 358 358 357 357 358 358 357 355 355 358 360 358 356 353 352 351 349 348 345 346 346 342 341 339 339 342 343 342 342 350 352 357 353 355 355 354 355 355 354 353 353 353 355 356 357 357 358 359 359 358 357 356 353 349 349 349 350 350 349 349 349 349 348 350 350 351 353 353 353 353 354 353
350 351 351 351 353 353 357 358 358 357 357 359 359 359 359 357 357 357 358 358 358 359 356 355 354 354 353 353 352 351 350 349 348 348 345 344 341 340 340 345 344 345 350 356 357 356 352 355 356 355 354 356 355 354 354 355 356 357 357 358 359 360 359 358 355 352 350 349 349 349 350 350 349 349 348 349 350 350 351 352 353 353 354 354 354
348 348 349 350 352 352 353 355 356 357 358 357 358 359 358 356 355 353 354 355 356 357 356 355 354 352 352 353 352 351 351 351 350 349 347 346 344 342 343 344 343 345 350 351 354 356 352 357 356 356 356 356 356 355 356 357 356 357 359 357 358 360 359 359 356 353 352 351 349 349 350 350 349 348 349 348 349 350 351 352 353 353 353 354 354
347 348 350 350 351 352 354 354 356 357 359 358 358 358 358 355 355 354 353 355 356 356 356 355 356 355 355 355 355 354 353 353 351 348 347 347 346 343 343 342 344 343 347 351 353 351 355 357 358 357 357 356 355 356 356 356 356 357 360 358 358 359 359 359 358 355 353 351 349 349 350 351 350 349 349 348 348 349 350 351 352 352 353 353 354
347 349 351 351 351 352 352 353 354 356 357 358 358 359 358 358 358 355 356 354 354 356 355 355 356 356 356 356 355 355 355 354 351 350 351 348 346 345 343 339 340 340 344 347 348 350 350 357 357 357 355 356 354 355 356 357 357 358 361 362 360 358 358 358 359 357 356 354 351 350 350 350 350 349 348 349 349 349 350 351 352 352 352 352 353
347 350 349 351 350 350 352 353 354 354 355 356 356 357 356 355 355 357 356 358 355 356 356 356 355 355 355 356 354 353 354 353 352 351 349 349 348 348 348 344 340 338 340 344 344 348 349 349 357 357 357 356 356 356 356 354 356 360 362 364 362 360 357 356 358 358 357 356 353 352 351 350 351 350 349 349 349 350 350 351 351 352 352 353 353
347 350 349 350 350 349 349 350 353 353 354 355 355 355 355 354 354 354 354 356 359 355 354 354 355 354 355 355 355 355 355 356 354 353 353 352 350 350 349 346 346 342 340 340 343 344 349 347 355 360 357 356 355 356 355 356 356 360 363 364 362 362 356 353 355 356 355 355 353 353 352 351 351 351 350 350 350 350 350 350 351 352 352 352 352
349 349 350 349 349 353 349 349 351 352 353 353 353 353 354 352 352 353 353 355 354 356 357 356 356 357 358 358 358 356 356 354 355 354 354 354 350 351 352 350 349 346 344 341 343 344 347 348 351 356 357 356 353 354 355 356 355 360 364 364 362 362 354 352 353 354 354 353 352 353 354 352 352 351 352 351 350 350 350 350 350 351 351 352 352
351 351 351 350 349 348 349 348 348 350 352 352 353 352 352 351 351 351 352 353 352 352 354 357 357 358 358 357 357 356 357 357 358 356 355 354 353 352 352 352 350 350 347 346 341 349 348 350 354 354 354 355 354 353 356 358 357 359 361 362 364 361 355 356 354 353 352 351 351 350 352 354 353 352 352 353 352 351 351 351 350 350 351 351 351
349 350 350 350 349 348 347 347 346 346 348 349 351 351 351 350 350 350 351 352 352 352 353 355 356 358 358 357 358 357 357 358 358 357 356 357 357 356 355 354 354 351 352 346 344 346 352 353 354 355 354 353 355 354 356 356 357 357 361 362 362 360 361 361 354 353 352 351 350 349 348 350 351 353 353 354 353 352 351 351 351 351 351 351 351
350 348 348 349 350 349 347 348 346 347 346 347 348 350 349 349 350 350 351 353 353 353 355 355 355 357 358 357 357 357 357 356 357 355 354 356 356 357 357 354 353 352 351 348 346 348 351 352 352 352 353 354 355 356 354 355 357 358 359 363 364 362 362 361 361 350 349 348 348 347 346 346 348 349 351 353 354 353 352 352 352 352 352 352 352
350 349 349 348 349 349 348 347 347 347 347 347 346 348 348 347 348 348 349 351 352 352 353 353 355 355 357 357 356 355 357 356 354 351 352 354 354 353 356 355 354 354 354 353 349 348 347 351 354 353 354 354 354 355 354 353 354 357 356 360 362 363 361 361 360 358 347 346 345 345 345 345 344 345 347 350 352 354 354 353 352 349 350 351 348
351 350 349 348 349 349 348 348 347 347 347 346 347 347 347 347 347 347 348 350 350 350 350 352 353 355 354 356 355 356 356 355 355 351 355 355 357 355 354 353 353 353 354 354 349 346 346 349 350 352 351 353 352 354 355 354 355 354 355 357 359 360 358 358 358 358 345 344 344 345 344 344 343 343 344 345 348 351 352 351 347 343 343 343 340
349 350 350 349 349 349 347 348 347 347 346 347 347 347 347 347 347 347 348 349 349 349 349 350 351 353 354 354 354 356 356 354 352 352 352 352 355 354 353 357 355 354 355 355 353 353 348 347 349 350 351 350 351 353 353 354 352 353 355 355 356 355 356 357 355 352 347 345 345 344 344 343 342 341 340 341 343 344 342 340 340 339 337 338 338
350 349 350 350 348 347 346 346 346 345 345 346 346 346 347 347 347 347 348 348 349 350 351 351 353 354 354 355 356 356 353 352 351 349 349 350 354 354 355 354 355 356 356 354 353 351 350 348 347 347 347 349 350 352 351 349 349 351 352 352 353 354 354 355 356 353 345 342 341 339 338 340 340 338 336 334 332 332 332 333 332 331 332 331 330
350 349 348 348 348 346 346 347 346 346 346 345 346 346 346 347 347 348 349 349 348 350 351 352 355 357 356 356 357 356 352 351 351 350 350 351 354 354 352 354 355 354 352 350 349 349 348 346 345 344 345 345 347 347 349 350 346 346 348 352 352 353 352 352 351 350 350 348 345 341 337 335 333 331 332 331 331 330 330 330 329 327 325 322 322
349 349 348 348 349 348 346 346 346 346 345 345 345 345 346 346 347 347 347 348 349 350 352 354 356 357 358 357 357 354 353 352 352 352 351 353 355 355 355 355 354 352 350 350 350 348 347 345 345 344 343 344 344 344 348 349 348 348 346 346 346 347 348 349 345 344 343 340 339 338 337 336 334 332 330 329 329 329 329 328 328 327 326 324 321
350 347 347 347 347 348 347 346 346 347 346 345 345 345 344 345 346 346 347 348 349 350 351 354 355 356 358 358 356 354 354 353 352 352 353 355 354 354 353 353 353 351 350 349 349 348 346 346 346 346 345 344 345 345 346 347 347 347 348 346 343 342 341 341 343 342 341 339 336 336 335 334 334 333 332 331 330 330 329 329 329 328 327 324 323
351 352 354 352 347 346 347 347 346 346 345 344 343 344 343 343 344 344 347 348 349 350 352 353 355 356 357 357 355 354 354 356 356 355 355 357 356 353 352 353 351 350 349 349 349 348 348 346 345 346 344 343 345 345 344 344 342 342 345 346 344 343 341 340 339 344 341 335 336 334 332 332 330 329 330 329 331 330 329 329 329 329 327 324 324
350 351 352 353 352 349 345 345 345 345 344 344 348 350 351 345 344 343 345 347 348 349 351 352 353 355 355 355 355 357 357 359 359 358 358 360 360 358 354 352 353 350 351 351 349 348 347 345 344 344 342 341 344 344 343 345 347 346 345 343 342 341 340 337 337 338 340 336 331 328 330 330 327 326 326 325 327 328 327 327 326 326 325 324 323
348 349 351 350 350 351 348 345 344 344 344 345 350 339 339 350 349 345 345 346 349 350 351 351 351 353 354 354 353 356 360 360 360 360 360 360 360 359 358 357 356 355 351 350 349 349 346 344 345 344 343 343 346 347 343 345 347 347 345 344 342 340 338 337 330 333 339 335 329 326 327 328 327 324 324 324 325 325 326 325 326 325 324 323 322
348 350 348 348 349 350 350 347 344 344 344 348 336 335 336 336 352 350 347 346 349 350 351 351 352 353 353 352 352 353 358 361 361 363 361 360 359 357 356 356 356 355 354 352 349 346 346 344 344 341 340 340 341 342 343 343 343 344 344 344 341 340 337 334 333 329 334 336 328 325 325 330 328 324 323 324 325 325 325 325 325 324 324 323 322
349 349 349 349 349 349 349 349 348 346 344 344 333 332 333 333 338 354 350 349 349 350 351 351 351 352 353 352 351 351 355 360 361 360 360 359 356 355 355 352 350 347 340 344 348 350 348 344 342 340 339 338 339 342 344 342 341 340 342 340 336 336 333 332 331 328 331 335 327 324 323 327 328 324 322 325 325 325 324 325 325 324 323 323 322
349 349 349 349 349 349 349 348 349 349 347 347 335 331 330 331 332 341 348 351 350 350 350 350 350 351 351 352 351 351 354 360 361 356 354 353 351 345 339 339 341 343 343 342 342 343 342 341 341 340 337 336 337 338 339 339 339 340 338 331 333 331 332 331 334 334 337 335 326 324 323 325 327 324 322 324 326 325 325 323 323 323 322 322 321
349 348 349 349 349 350 349 350 349 348 349 343 333 331 328 327 329 342 344 350 351 350 351 351 351 350 350 352 352 352 353 359 357 355 351 346 342 337 335 335 334 335 335 336 335 336 336 334 334 334 334 334 334 335 336 339 340 340 339 335 334 333 334 335 333 334 335 339 335 327 320 324 327 324 323 325 326 325 327 324 323 322 322 321 321
349 350 350 349 349 349 349 349 347 347 347 338 333 330 328 326 330 340 344 348 351 350 350 350 350 350 351 351 352 353 351 355 356 351 350 342 337 334 332 332 331 332 333 334 330 334 336 335 335 335 334 333 331 337 338 339 340 340 340 339 338 336 333 330 328 331 330 334 333 326 322 324 328 324 324 327 326 324 326 326 324 322 321 320 320
343 346 348 348 350 349 348 348 346 346 345 339 328 327 327 327 333 342 344 346 349 349 349 349 349 349 349 350 352 352 351 351 348 335 338 344 335 333 331 330 330 331 331 332 329 328 327 325 326 327 326 325 324 323 325 330 336 338 337 334 332 333 329 325 325 326 326 330 332 329 325 323 327 326 324 325 326 324 325 325 326 323 321 320 318
341 344 347 347 348 347 347 345 345 344 344 339 326 325 325 326 340 342 344 345 347 348 349 349 347 348 349 351 352 353 353 350 336 330 334 343 335 332 331 329 329 329 330 331 331 330 329 328 329 330 330 330 329 327 326 325 328 338 338 332 332 332 328 327 323 324 325 328 328 332 325 324 327 327 325 327 328 327 327 327 328 326 324 321 319
342 344 346 346 345 343 342 343 345 346 344 340 324 322 324 324 337 345 345 347 347 348 348 347 346 344 344 347 351 351 351 346 327 328 331 344 335 332 330 329 328 327 328 329 327 327 328 328 329 330 330 331 331 331 331 331 330 330 330 331 333 331 327 327 326 325 322 323 326 331 325 325 326 327 327 323 319 325 327 326 326 327 327 327 326
Wind_Speed
2 2 2 3 4 4 4 3 3 4 2 3 3 4 3 3 2 3 3 3 3 4 3 4 4 4 4 5 5 4 4 4 4 4 4 4 3 6 10 11 12 13 14 14 15 16 16 16 15 5 7 7 13 15 20 19 18 17 17 17 17 15 11 9 8 9 13 12 13 14 14 15 15 15 14 14 13 13 12 11 11 12 11 11 12
2 2 3 4 4 4 4 4 4 3 2 3 3 3 3 3 3 3 3 4 4 5 3 4 4 4 4 5 5 5 4 4 4 4 3 3 4 4 10 11 12 13 14 15 15 16 16 16 12 3 12 13 16 16 19 20 17 16 17 18 17 13 7 5 9 12 13 13 13 13 13 14 14 14 13 15 15 15 14 13 12 12 11 12 12
1 2 2 3 4 4 4 3 4 3 2 3 3 2 3 3 3 3 4 4 4 3 3 4 4 4 4 4 5 3 3 3 3 3 3 3 3 4 5 10 12 13 15 16 16 16 16 16 10 6 13 15 15 16 18 17 18 18 18 19 18 14 9 6 14 15 12 11 13 13 12 12 13 13 14 15 15 15 15 14 13 12 12 12 12
2 2 2 3 4 4 4 4 5 3 2 2 3 2 3 3 3 2 1 2 2 1 1 2 3 2 2 3 2 2 2 2 3 3 3 3 3 3 3 4 9 12 14 16 16 17 17 16 6 7 16 17 17 17 18 19 19 19 19 19 19 14 5 5 14 14 10 8 12 12 8 10 11 12 13 14 14 14 15 15 13 12 12 12 13
2 2 3 3 4 4 4 4 4 3 2 2 3 2 0 1 2 2 2 2 2 2 1 1 2 3 2 3 3 3 3 3 3 3 4 4 4 4 4 4 5 9 13 13 13 14 15 16 10 14 15 16 16 18 19 20 21 20 19 19 17 10 2 7 1 13 13 9 12 13 6 10 11 12 12 13 13 14 14 15 14 13 14 13 13
2 3 2 3 4 4 4 4 4 3 2 1 3 2 1 2 2 1 1 2 2 2 2 3 3 2 3 3 3 5 3 3 4 4 4 4 4 4 5 4 4 4 5 10 13 13 14 13 12 13 14 16 18 19 20 21 23 23 20 18 15 7 6 10 6 12 11 12 13 10 10 10 9 11 12 12 12 13 13 13 14 15 15 15 13
2 2 3 3 4 4 4 5 3 3 2 2 1 1 1 1 1 1 1 1 1 1 2 3 4 4 4 3 5 3 3 4 4 5 5 5 4 5 4 4 4 4 5 5 7 12 13 12 10 12 15 18 18 19 20 22 23 21 21 17 15 6 7 9 7 11 10 14 14 11 13 13 12 12 10 10 11 12 13 12 13 14 14 14 14
2 2 4 4 4 4 4 3 4 2 2 1 1 1 1 1 1 1 1 1 1 3 2 3 3 5 5 5 4 3 4 4 5 5 5 4 4 4 4 4 4 4 5 4 5 5 9 10 9 12 17 17 17 18 21 22 22 21 19 18 15 10 7 9 11 11 12 9 13 14 13 12 13 10 10 11 10 11 12 12 12 13 14 15 15
3 3 3 5 4 4 4 3 2 2 3 2 2 1 1 0 0 1 2 2 2 3 3 2 3 4 4 4 4 4 4 5 5 4 3 4 4 4 4 5 4 6 4 3 3 4 5 6 6 11 15 16 16 17 19 20 20 19 17 16 13 2 6 1 13 10 11 13 17 18 15 13 12 9 11 11 10 10 11 11 11 13 15 16 16
4 3 3 4 4 4 3 3 2 3 3 2 1 1 1 1 2 1 0 1 2 3 4 3 2 3 4 4 5 4 5 5 4 4 3 4 4 4 5 4 4 4 1 8 7 7 3 3 4 6 10 12 12 15 17 17 16 13 13 13 12 2 6 7 5 10 12 15 16 16 13 9 9 10 10 10 10 10 11 12 12 13 15 16 16
4 3 4 4 4 4 4 3 2 3 2 2 2 1 1 1 1 2 1 3 3 3 3 3 4 3 4 5 4 6 5 4 3 3 3 4 4 4 3 4 4 3 2 8 4 6 5 1 1 3 5 11 12 14 15 13 11 10 9 10 8 2 9 10 4 7 9 10 11 10 8 7 8 8 8 9 10 10 11 12 12 13 14 16 17
4 3 4 4 4 4 4 2 3 3 3 3 3 3 3 2 2 2 4 3 2 2 2 2 3 4 5 5 4 5 6 3 3 4 3 4 4 2 3 3 3 3 5 7 6 4 4 2 3 5 5 7 12 13 12 11 10 9 9 9 9 1 10 10 7 10 12 13 12 9 7 7 7 7 8 9 10 10 11 12 12 13 15 15 16
4 3 4 4 4 3 2 3 3 3 3 4 3 2 1 1 0 1 1 3 2 1 2 1 2 4 2 3 5 3 4 3 3 3 3 2 2 2 2 3 4 4 7 5 5 5 2 3 4 3 3 3 5 8 9 9 8 7 8 8 7 7 3 10 10 11 14 14 11 8 7 6 7 7 9 10 10 11 12 12 12 12 14 16 17
3 3 4 4 4 3 3 3 3 3 3 2 2 2 1 1 0 2 0 1 3 3 2 1 2 1 4 6 4 6 3 2 2 4 4 3 2 2 2 3 4 3 7 8 6 6 3 4 3 3 3 3 4 4 4 3 4 7 9 7 6 5 4 4 7 12 14 11 8 6 7 8 9 9 10 9 9 11 12 11 12 13 14 16 17
4 3 4 4 4 3 4 3 3 3 3 3 3 4 2 1 1 2 3 1 3 3 3 2 1 0 1 1 3 5 5 4 3 5 4 3 2 2 2 3 4 4 3 8 5 6 4 2 3 3 3 2 3 3 4 1 2 2 4 4 4 6 3 2 5 9 10 8 6 7 9 9 9 9 8 7 8 9 10 10 11 13 14 14 15
4 4 3 4 4 5 3 2 3 2 3 4 4 4 3 1 1 2 1 3 2 3 2 2 2 2 4 1 2 1 4 3 5 6 2 4 3 3 2 3 4 4 2 5 8 5 3 2 3 3 2 2 2 4 4 2 2 3 2 3 5 8 2 5 8 7 7 8 8 7 7 7 7 7 7 6 7 8 8 8 9 11 12 13 14
5 4 4 5 5 4 4 3 3 3 2 3 3 4 3 2 2 2 3 3 4 2 2 1 2 2 2 1 2 2 1 4 4 5 3 5 2 3 3 2 3 2 2 1 2 6 4 3 2 2 3 3 4 3 2 2 2 2 1 2 7 6 3 4 6 8 7 7 6 6 6 6 6 5 5 6 6 7 7 7 8 8 10 12 13
5 5 5 4 5 5 4 3 3 3 3 3 3 2 3 3 3 3 3 4 4 3 3 2 1 2 4 3 3 2 3 3 2 5 4 2 3 3 4 1 2 2 2 2 2 1 2 3 3 2 3 4 4 2 1 2 3 2 1 1 4 4 2 2 3 6 6 5 5 6 6 6 5 4 4 4 5 6 6 6 6 7 10 11 12
5 5 5 5 5 5 5 4 3 3 3 3 3 4 3 3 2 3 4 3 3 4 5 3 3 1 2 3 3 3 3 1 3 2 6 4 2 3 4 1 3 2 2 2 2 2 2 1 2 2 3 3 3 3 2 3 4 4 4 3 3 5 3 2 1 1 3 3 4 5 5 5 5 4 4 5 5 4 5 5 6 7 9 12 13
5 5 6 5 5 5 5 4 3 3 3 4 4 3 2 3 3 4 3 3 4 5 5 2 1 3 1 2 2 2 3 4 4 3 3 4 8 3 3 3 4 2 2 2 3 2 2 1 1 1 2 2 2 3 3 4 5 4 5 6 6 5 4 3 2 2 3 4 4 4 5 5 5 5 5 6 6 6 6 7 8 8 9 12 13
5 6 6 6 5 5 5 5 4 4 3 4 4 3 4 4 4 4 4 4 4 4 3 4 2 3 2 2 2 1 1 2 2 3 3 2 5 3 6 4 3 1 2 2 2 2 2 1 1 1 2 1 3 3 4 4 5 4 5 5 6 6 7 7 6 5 5 5 4 4 6 6 6 5 5 5 6 7 7 7 8 8 9 11 12
4 5 5 5 5 5 5 5 5 4 3 4 4 4 4 4 5 5 4 5 3 3 5 4 3 3 3 2 2 2 3 1 1 1 1 3 4 5 4 5 6 5 1 2 2 2 2 2 2 1 1 1 2 3 4 4 5 4 4 5 6 7 8 9 9 8 7 6 5 6 7 7 6 6 5 5 6 7 7 7 8 8 8 9 10
4 4 5 5 5 5 5 5 4 4 4 4 5 4 4 4 4 4 4 5 4 4 4 3 3 3 3 3 3 3 3 3 4 2 1 2 2 4 3 2 3 5 3 1 1 2 2 2 2 1 1 1 1 3 4 3 5 5 6 6 5 7 8 9 10 10 7 6 6 7 7 7 6 6 5 6 6 6 7 7 8 9 8 9 10
4 4 4 4 4 5 5 5 4 5 5 5 4 5 4 4 4 4 4 4 3 3 4 4 4 3 3 3 3 3 2 4 3 3 3 3 2 4 4 3 2 3 4 3 2 1 1 2 2 2 2 2 1 2 3 3 4 7 7 7 6 7 8 10 11 9 9 8 7 7 7 7 6 6 6 6 6 7 6 7 8 9 9 9 11
4 4 4 5 4 5 5 5 5 5 6 5 5 6 5 4 4 4 4 5 5 4 4 5 4 4 4 2 3 2 4 3 3 4 2 2 2 2 1 1 2 3 2 2 1 1 1 2 2 3 3 2 0 1 2 3 3 5 8 5 7 8 10 11 11 10 10 9 9 8 7 7 6 5 6 5 6 6 7 6 8 8 8 9 10
5 6 5 5 5 5 6 6 6 6 6 6 6 6 5 5 5 5 5 5 4 5 5 5 4 4 3 3 3 3 4 3 3 3 3 2 2 3 3 1 1 2 2 2 1 1 2 2 1 2 3 3 2 1 1 2 2 5 8 5 6 8 9 11 12 12 11 10 10 9 8 7 7 6 6 5 5 6 7 7 7 7 8 9 9
6 6 5 5 6 6 6 6 6 6 6 6 5 6 6 5 5 5 4 4 5 4 5 4 4 4 4 4 3 3 3 3 2 4 3 3 3 2 1 4 3 1 2 1 2 1 2 1 0 2 3 3 2 2 1 1 2 4 7 6 5 9 10 10 11 12 13 12 11 10 9 8 7 6 5 6 6 7 7 7 7 7 7 7 9
6 6 6 6 6 6 6 7 7 7 6 6 6 5 6 5 5 4 6 3 4 5 5 4 4 5 4 3 2 3 3 3 3 3 3 3 3 2 2 2 1 4 2 2 2 1 2 2 0 0 1 1 1 1 1 0 1 2 6 5 4 6 10 10 10 10 10 11 12 11 10 9 8 7 6 6 6 7 8 8 8 8 8 8 8
5 5 5 6 6 6 6 6 7 7 6 6 6 6 6 5 5 6 6 5 5 6 5 4 5 4 3 3 3 3 3 2 3 3 3 3 3 3 3 4 3 1 2 2 2 1 1 1 1 1 1 2 2 1 1 0 2 2 3 5 4 5 9 11 11 10 11 10 11 11 11 10 9 8 8 7 7 8 8 8 8 9 9 9 9
6 5 6 6 6 7 7 7 6 6 7 6 6 6 6 5 6 5 5 4 5 4 4 4 4 3 3 2 2 3 2 2 3 3 2 2 2 3 3 3 4 4 3 2 4 2 1 1 1 2 1 2 3 2 1 1 2 2 2 5 5 5 9 12 11 11 11 11 11 11 11 11 11 10 9 9 9 9 9 9 9 9 10 9 9
6 6 6 6 6 7 7 6 6 7 6 6 6 6 6 6 5 5 5 4 5 6 5 4 4 3 3 4 3 3 2 2 3 2 1 2 3 3 3 3 4 5 5 3 2 2 1 1 2 2 1 2 2 2 2 1 2 3 2 2 3 6 8 9 11 11 11 11 11 12 11 11 11 10 9 8 8 9 9 9 9 9 10 10 10
6 7 7 6 6 7 6 6 6 6 6 6 5 6 5 6 5 5 5 5 5 6 6 4 3 3 3 4 4 3 2 2 3 3 2 1 1 1 2 3 3 3 4 4 4 4 2 2 1 1 1 2 2 2 3 3 2 3 3 1 2 5 5 4 9 11 11 11 11 11 12 11 11 10 9 8 8 9 10 10 11 11 11 11 11
6 7 7 7 7 7 6 7 7 7 7 6 6 6 5 6 6 6 6 5 6 6 5 5 3 3 4 5 5 4 2 3 3 2 2 2 0 0 1 2 2 3 4 4 4 4 1 1 1 0 1 2 1 2 3 3 3 4 4 3 2 1 1 2 3 9 10 8 9 9 10 11 11 10 9 9 8 9 10 11 11 11 10 10 10
7 7 7 7 7 7 7 7 7 7 7 7 6 5 6 6 7 4 5 6 6 7 5 5 5 4 4 5 5 5 3 4 3 3 3 2 1 0 0 1 2 3 4 4 3 1 3 2 0 0 1 1 2 2 2 4 5 5 4 3 2 2 1 1 2 3 7 4 2 5 8 9 9 10 10 9 9 8 9 10 10 9 9 9 9
6 7 6 7 7 7 7 7 8 7 7 7 6 6 6 7 7 6 5 6 7 7 6 7 7 5 4 4 5 4 2 3 3 3 3 3 1 1 1 1 2 1 3 3 3 2 2 1 1 0 1 1 1 1 2 3 3 3 4 5 3 3 3 3 3 3 5 5 6 7 7 6 6 7 9 9 8 9 9 10 10 10 10 10 10
7 6 7 7 6 7 7 7 7 7 7 7 7 7 8 8 7 8 7 7 7 6 6 6 6 5 6 5 5 5 3 3 4 4 3 2 2 2 2 1 1 1 1 1 2 2 2 1 2 0 1 1 2 2 1 0 2 3 3 3 3 3 3 4 5 5 7 6 8 9 7 6 7 6 3 4 5 6 7 8 9 10 11 11 11
7 6 6 7 7 7 7 8 7 7 7 7 7 7 7 7 8 8 8 7 7 7 7 7 6 6 6 6 7 4 3 4 4 4 3 5 3 2 2 1 1 0 0 1 1 1 1 3 3 1 2 1 1 0 2 2 2 2 3 3 4 3 4 4 4 6 12 17 18 17 13 9 6 10 15 16 14 12 11 10 9 7 5 5 4
7 7 7 6 7 8 8 8 8 8 7 7 8 8 8 7 7 7 7 7 7 7 7 7 7 7 7 7 7 5 5 6 6 4 4 4 2 3 3 2 1 1 1 0 1 1 2 2 2 3 3 3 3 1 2 4 3 2 1 2 3 3 2 5 7 5 5 6 5 7 11 13 18 19 19 18 17 16 15 15 15 14 14 12 11
6 7 6 7 7 7 8 8 8 8 8 7 7 8 8 7 8 7 7 7 7 6 6 7 7 7 7 7 6 6 7 7 6 6 5 4 4 4 4 3 3 3 3 2 2 1 2 1 1 2 2 2 2 3 2 3 1 1 1 1 2 3 4 5 6 6 6 10 15 19 16 15 16 13 17 17 16 15 16 16 16 16 15 14 13
4 4 5 6 6 6 6 7 8 7 7 7 7 7 7 7 7 7 7 7 7 6 6 6 6 7 7 7 6 6 7 7 6 5 5 5 4 4 3 3 3 4 3 3 2 3 3 2 2 4 2 2 2 2 3 2 0 1 2 1 1 3 4 5 5 6 6 9 9 9 10 10 11 11 14 16 18 17 16 15 19 17 16 14 15
4 4 3 3 4 5 6 7 7 7 7 7 6 6 8 8 7 8 8 8 7 7 7 7 6 7 7 6 6 6 7 8 9 7 7 5 4 5 5 4 4 3 3 3 3 3 4 4 5 4 4 4 3 3 4 2 1 2 1 1 1 4 5 5 6 6 6 9 7 8 8 7 8 9 9 11 12 15 16 17 15 19 18 16 16
4 5 5 4 3 4 5 6 6 6 7 6 7 13 11 8 8 7 7 8 8 8 8 7 6 6 7 6 6 11 11 11 10 10 9 9 8 5 6 6 5 4 4 4 4 4 4 5 6 5 4 4 4 4 5 3 2 3 2 2 3 4 6 7 7 7 5 6 10 11 8 6 8 9 10 11 10 12 10 10 12 13 15 16 16
6 5 5 5 5 5 5 5 6 6 6 6 12 13 13 14 9 8 8 8 8 8 7 8 8 8 7 6 5 7 9 10 9 11 9 9 8 6 6 5 5 5 4 5 5 4 5 6 5 5 6 6 5 4 4 3 3 2 2 3 4 5 5 4 5 5 5 4 9 12 10 8 8 11 10 9 9 10 10 11 17 17 17 17 17
5 4 6 6 5 5 4 4 5 5 5 8 13 13 14 14 13 8 7 7 8 8 8 9 8 8 7 6 5 4 5 6 5 7 9 10 8 7 7 6 5 3 2 3 5 5 5 5 5 2 2 2 2 2 1 1 3 3 3 2 4 4 2 5 5 5 4 3 9 13 9 7 7 10 12 10 9 10 12 15 17 16 16 16 16
5 6 6 5 5 4 5 5 6 4 4 6 10 12 13 14 15 13 8 9 8 9 9 9 9 9 7 6 6 5 5 11 8 7 7 6 8 9 12 12 11 10 8 7 3 3 4 4 4 4 3 2 2 2 1 0 2 2 2 2 3 4 6 7 6 8 4 3 10 12 10 6 6 10 12 8 8 8 9 14 17 16 16 15 16
6 6 5 6 4 4 4 4 5 4 4 5 7 9 11 12 13 11 8 8 9 10 10 10 8 9 9 8 6 6 6 8 8 9 7 7 7 8 6 6 6 8 9 8 6 6 4 1 1 3 1 1 2 1 2 2 2 3 2 5 5 7 6 7 7 8 5 2 8 11 10 7 5 9 10 7 8 10 9 12 15 16 16 15 15
6 6 6 6 6 5 4 3 4 4 4 3 4 5 7 10 11 8 6 6 6 7 8 8 9 9 9 8 8 7 9 8 10 11 11 8 8 6 6 6 6 5 4 4 4 3 3 3 3 2 1 2 3 3 2 1 1 2 6 9 9 9 11 11 9 8 6 3 1 5 8 5 4 9 8 7 8 9 9 12 15 15 17 15 15
5 4 5 5 6 6 4 4 4 5 4 3 2 2 2 4 4 4 6 6 6 6 7 7 8 7 8 8 7 7 8 7 14 17 13 10 9 9 9 7 7 6 6 6 6 5 5 3 2 2 0 1 2 1 1 4 6 8 9 8 7 8 10 10 8 5 6 6 6 9 10 6 5 9 8 6 7 8 10 10 14 16 15 15 15
5 5 5 5 4 5 4 4 4 4 4 2 1 1 1 2 3 3 5 5 6 8 9 9 9 7 6 7 8 7 10 11 14 17 17 17 11 10 9 9 7 6 6 5 7 9 9 8 8 8 6 7 7 7 8 8 6 6 7 8 7 6 8 9 7 7 6 4 5 6 11 10 5 7 8 7 8 9 8 9 9 13 15 14 14
6 6 5 5 5 5 5 5 4 4 4 3 4 3 2 4 5 4 4 5 7 8 9 8 5 3 4 11 11 8 10 10 16 18 19 15 12 11 11 11 8 7 6 4 4 6 9 10 10 10 10 12 14 14 12 11 9 4 1 7 6 6 6 7 9 8 6 5 3 1 7 8 7 6 9 7 7 7 8 7 7 7 10 12 15
7 6 6 6 5 3 2 3 5 5 5 3 3 3 4 4 4 3 4 4 6 6 5 4 2 3 6 8 11 9 8 13 19 19 21 17 14 12 12 10 9 9 6 5 6 7 5 6 6 7 8 9 8 8 10 14 13 10 6 4 3 5 7 8 11 10 7 2 2 4 7 7 7 5 6 5 7 6 6 6 6 6 7 6 7
Wind_Direction
338 338 346 310 300 305 304 284 280 275 288 264 239 270 285 282 254 251 243 243 239 245 241 255 250 243 236 254 244 235 228 226 229 234 235 237 241 248 247 238 233 236 241 245 247 249 249 250 251 237 236 217 240 240 241 238 239 240 242 246 254 252 257 273 279 260 248 237 235 226 220 216 221 226 229 230 228 226 219 217 218 217 215 213 210
312 336 337 308 305 313 303 286 281 287 254 256 241 237 270 282 270 252 247 241 240 239 219 241 241 236 230 240 238 232 210 217 229 232 239 241 242 250 254 251 244 241 244 247 249 250 251 253 254 210 238 223 227 238 243 244 245 246 244 243 245 246 246 267 290 280 254 246 241 229 222 219 219 219 219 227 229 228 226 221 215 211 206 210 215
239 291 306 295 307 306 296 300 284 274 231 267 293 266 273 268 265 267 258 254 258 276 237 235 239 239 229 233 243 239 227 234 253 249 249 249 248 246 257 259 256 251 249 249 251 251 252 252 246 233 251 242 231 239 250 255 257 253 248 246 245 241 210 182 240 239 258 263 248 237 223 219 215 215 217 223 227 228 226 220 214 211 209 209 208
233 271 272 289 292 293 287 280 264 266 223 262 296 299 269 266 260 239 262 225 254 289 234 237 266 296 301 263 287 249 262 254 256 256 259 256 254 257 257 261 266 263 259 256 253 253 255 254 257 251 247 244 245 248 253 252 250 250 247 244 245 240 203 185 220 228 241 256 283 271 255 232 214 217 217 222 224 225 225 222 219 216 207 207 205
234 246 281 283 287 285 280 255 258 258 237 260 282 313 238 8 47 65 77 71 76 26 20 68 304 283 297 270 254 259 252 252 253 252 252 255 245 247 246 245 247 258 258 258 260 262 260 257 219 213 223 244 241 241 244 249 252 248 248 251 251 254 159 225 9 302 268 243 232 241 215 241 214 212 215 219 226 229 228 226 221 217 213 209 204
238 273 270 281 276 268 261 263 251 241 226 254 281 320 36 33 25 40 26 44 34 349 356 300 272 270 261 260 252 251 238 246 243 247 248 244 238 237 242 240 239 244 258 260 259 260 262 261 240 227 212 234 243 247 246 248 250 251 250 255 253 206 241 251 208 229 251 254 238 238 229 240 218 215 216 219 222 224 227 225 224 223 217 213 209
232 270 288 276 276 268 248 244 252 242 218 218 247 319 28 53 15 62 356 18 19 270 242 259 277 270 251 231 244 235 228 240 240 244 238 241 237 238 234 234 229 230 241 243 256 256 257 258 261 200 221 223 233 240 243 247 249 251 255 256 257 225 168 239 246 236 231 239 241 236 230 229 227 224 224 226 223 224 227 224 222 221 215 209 211
275 264 282 273 261 254 252 254 249 250 235 186 162 16 9 1 326 156 131 294 288 275 220 254 261 270 267 261 254 251 243 242 240 239 238 237 239 244 239 238 235 232 237 238 245 248 248 254 247 202 207 222 227 235 242 244 246 250 256 263 269 268 170 218 196 229 225 235 246 229 232 232 231 224 223 223 221 218 222 225 224 218 212 211 211
278 280 265 273 256 246 247 233 240 244 241 168 142 146 134 331 328 240 198 198 220 276 298 267 274 266 270 255 248 239 244 239 242 239 235 237 246 253 254 248 241 246 243 262 319 339 312 302 261 227 221 223 228 233 237 241 247 249 254 268 272 354 14 229 158 211 206 205 218 224 220 223 219 215 220 221 220 216 212 219 220 215 215 212 208
272 274 261 262 250 245 257 235 226 241 251 215 180 159 150 162 353 334 123 166 250 267 289 291 268 279 281 277 278 246 248 244 244 246 233 246 244 247 244 251 249 241 234 43 1 290 274 307 297 274 248 243 236 232 233 237 242 246 259 264 262 120 118 255 172 220 230 205 205 218 215 219 209 208 217 221 219 216 211 212 218 217 216 212 208
262 262 260 264 257 242 243 226 201 233 246 261 312 331 40 85 44 318 248 239 245 241 258 278 286 284 279 282 289 272 264 257 249 244 239 246 255 256 253 254 251 245 107 92 229 270 290 311 239 260 259 248 232 227 233 242 249 255 257 266 266 151 147 221 228 238 234 217 216 221 210 214 210 212 214 220 220 217 215 212 212 215 216 213 212
243 254 257 260 245 238 239 197 205 195 209 253 275 283 291 333 325 323 331 302 251 279 262 265 276 264 282 295 275 279 285 283 260 253 253 248 249 255 261 265 255 271 85 102 259 257 279 311 265 249 249 250 244 234 234 242 253 262 276 278 279 241 148 232 218 222 227 223 227 217 207 215 209 207 211 214 215 217 215 213 213 213 213 210 212
241 239 252 258 242 244 233 237 212 202 203 231 252 281 244 193 231 1 320 350 319 306 271 230 328 321 317 296 309 294 300 300 279 278 268 254 238 259 266 289 291 272 82 73 275 269 272 260 243 241 254 266 275 272 263 265 260 268 277 282 290 288 239 189 212 231 226 224 221 202 196 207 209 210 211 211 211 214 213 213 216 217 214 211 210
235 220 240 239 254 245 227 237 217 218 222 244 256 256 216 125 86 3 165 292 278 252 251 237 14 9 321 330 330 318 314 322 317 318 312 311 307 291 301 289 280 290 98 117 259 259 245 252 264 287 288 289 290 290 284 274 273 275 271 286 296 292 274 261 213 195 219 215 198 183 184 199 207 211 210 211 212 216 217 218 218 217 215 212 211
223 226 226 235 236 231 233 227 229 230 238 259 287 285 258 230 155 242 309 258 266 270 256 220 270 259 166 326 314 349 333 348 319 321 316 310 319 297 282 279 300 319 74 120 236 252 247 249 276 275 280 292 301 299 283 284 268 266 277 282 325 305 285 189 190 191 201 198 186 198 194 197 208 216 216 219 219 220 222 228 229 226 218 210 209
209 217 223 232 230 229 237 226 237 214 213 236 260 268 276 251 210 222 184 304 331 300 265 210 172 56 349 342 287 323 332 317 331 311 329 301 319 327 329 315 314 313 300 149 184 235 248 246 256 276 304 319 306 297 286 289 280 294 277 160 1 290 234 168 176 178 175 174 187 185 190 202 211 220 225 223 230 230 229 234 242 235 221 210 208
211 207 217 223 228 234 232 228 235 238 215 222 236 246 255 239 208 216 198 244 282 282 301 206 212 179 174 1 331 7 229 273 334 291 327 337 355 337 309 294 292 286 283 289 160 176 200 207 221 242 259 261 264 259 280 294 327 318 284 226 209 215 177 142 141 151 165 173 174 177 191 203 209 219 235 234 232 242 238 240 246 240 232 214 208
204 209 211 211 221 226 227 225 221 230 221 218 231 255 257 249 222 222 248 222 248 262 278 295 297 239 201 205 186 257 275 283 348 313 314 252 302 285 281 294 291 312 316 326 9 73 158 143 148 165 211 229 247 241 234 281 290 270 242 228 306 309 43 78 127 154 178 171 169 187 200 200 202 209 217 235 238 240 239 242 249 245 228 214 207
204 203 203 211 209 216 219 214 216 216 236 214 232 230 233 233 237 216 236 240 191 247 262 277 340 31 217 223 238 246 206 265 276 279 328 325 283 310 310 314 325 15 348 11 7 56 84 94 118 144 175 203 216 240 247 262 250 248 233 216 237 274 299 343 56 79 177 187 181 197 215 210 205 207 214 219 219 224 235 239 238 244 228 214 210
204 204 203 203 202 209 209 208 209 221 223 224 227 229 233 252 243 242 250 222 208 227 261 223 213 285 235 255 246 260 241 233 219 240 260 294 312 287 229 320 357 19 358 360 25 32 93 67 113 149 151 176 183 190 220 235 241 249 244 226 217 215 246 277 298 310 238 217 207 214 228 219 213 216 226 231 229 220 215 219 228 231 225 213 208
200 202 201 198 204 203 198 203 207 219 231 233 234 227 227 250 263 260 255 243 207 218 222 238 191 233 306 300 296 228 237 226 228 178 203 254 279 289 317 335 343 95 2 28 63 59 83 105 104 119 153 175 187 193 200 215 227 239 251 241 229 213 202 225 230 231 232 223 221 219 230 230 222 222 231 237 238 234 223 223 237 231 223 216 211
203 205 204 196 203 199 190 200 204 209 229 234 241 243 237 232 242 252 260 273 249 221 222 240 222 243 221 215 300 309 333 67 125 173 233 218 261 300 319 333 338 320 344 14 54 90 113 119 74 74 121 166 221 219 198 197 208 220 236 243 237 222 206 211 216 224 220 211 215 222 231 231 226 224 226 229 231 229 216 227 227 230 225 220 213
202 207 205 194 193 198 198 202 202 211 228 226 233 235 236 231 242 246 259 256 259 228 246 248 233 234 228 205 234 246 241 251 279 274 248 259 273 277 290 277 287 313 306 360 61 110 135 104 73 40 62 126 210 232 223 203 203 209 221 227 233 225 214 210 212 208 196 206 215 218 221 230 235 230 221 223 228 228 221 224 220 221 222 215 210
208 207 211 199 190 200 207 203 208 211 222 227 233 228 235 236 243 248 260 259 250 239 239 253 242 243 250 220 237 245 227 229 245 245 219 245 226 279 292 298 294 232 291 321 127 121 104 83 84 78 64 95 204 230 238 229 216 207 213 221 224 217 208 197 206 199 195 193 209 225 225 227 230 230 221 225 231 232 232 224 217 218 217 210 206
214 211 219 200 193 205 203 207 217 219 225 226 235 230 229 228 238 247 253 260 246 227 231 238 240 245 261 243 237 237 249 235 241 253 251 231 211 263 277 199 260 300 314 345 342 58 87 58 62 70 85 70 104 240 251 248 238 210 210 214 221 211 206 198 201 197 198 191 200 211 221 231 230 226 221 224 237 240 244 235 224 221 217 211 204
204 212 209 200 204 207 208 214 216 220 222 226 230 233 224 228 229 238 242 246 240 228 227 238 234 245 239 263 251 250 265 255 250 239 244 211 227 225 284 278 231 287 294 319 319 324 115 107 58 75 91 105 120 121 251 268 248 222 214 203 210 204 203 200 197 196 198 192 197 203 209 218 225 222 213 212 226 242 245 242 233 228 222 212 211
209 213 198 202 209 211 215 218 217 219 220 224 228 228 226 225 224 231 237 236 236 222 225 217 231 235 234 229 262 271 268 275 252 250 215 233 235 230 183 310 332 343 330 313 314 296 293 326 40 106 97 105 109 100 85 233 244 224 210 203 208 203 202 201 198 197 198 194 196 201 205 214 218 222 209 207 226 237 235 237 236 228 235 224 222
209 204 208 198 206 216 217 222 222 220 217 220 224 229 223 217 228 223 237 226 221 221 229 218 239 247 250 248 244 274 278 285 277 262 233 231 248 190 181 161 251 315 315 310 337 299 312 324 345 243 55 59 95 126 104 269 276 256 215 196 190 200 201 198 200 198 198 199 197 199 205 213 215 217 216 203 219 232 234 228 227 232 231 230 227
206 203 210 204 212 214 218 223 223 223 224 222 222 227 225 222 224 224 233 229 215 229 233 231 237 244 245 252 248 273 285 290 287 271 246 221 220 211 195 194 172 246 301 302 289 283 204 256 280 300 14 9 360 352 65 31 334 321 199 188 178 196 193 196 197 197 196 195 192 198 203 207 216 217 216 210 209 220 229 232 229 229 233 231 226
200 205 203 204 210 217 218 225 226 224 224 223 219 225 220 226 227 229 238 228 230 245 242 236 245 240 253 265 252 265 263 279 287 292 255 215 211 208 208 196 169 197 198 251 286 239 225 244 236 267 13 345 344 335 354 2 318 359 146 176 179 190 185 195 199 200 198 194 188 191 199 205 211 215 218 214 214 219 221 225 229 230 229 230 229
199 203 203 201 200 211 215 222 225 228 224 223 219 223 213 229 227 232 228 220 229 243 244 234 247 240 252 267 259 254 251 282 283 286 268 208 198 191 201 191 199 200 182 179 264 272 206 244 240 240 296 311 323 323 340 326 9 15 70 139 180 178 180 198 203 204 201 199 191 188 194 200 206 213 216 219 217 221 228 225 226 229 232 234 237
204 201 201 205 203 205 206 215 221 221 221 223 214 221 215 222 232 233 230 207 225 236 249 238 250 244 248 260 256 251 259 268 275 271 252 224 203 201 201 201 201 200 164 175 211 257 199 234 230 203 244 285 316 346 352 351 2 21 12 36 125 147 175 205 202 206 202 199 195 191 193 197 203 207 212 218 222 224 229 235 233 234 233 236 238
206 206 204 205 206 205 205 212 217 221 220 222 217 214 214 226 229 232 238 212 223 236 236 253 241 243 239 251 261 259 248 263 271 282 286 302 149 130 178 178 188 178 172 179 211 261 270 150 238 188 212 295 267 355 344 348 357 356 358 358 16 87 158 217 207 201 202 195 199 199 197 201 204 206 209 214 218 224 231 237 241 239 243 246 246
209 211 211 208 205 204 206 208 214 215 216 219 213 203 209 223 232 221 228 215 221 238 227 245 243 231 233 242 258 264 241 251 272 272 272 266 251 233 165 181 199 186 196 180 197 232 279 308 344 312 197 300 323 357 1 345 350 349 347 359 5 50 79 95 140 164 186 178 251 247 216 211 209 210 211 213 217 225 232 237 242 246 242 243 247
210 215 215 216 213 209 212 214 213 214 212 213 212 204 213 217 226 228 224 215 218 229 230 235 243 236 238 235 251 255 239 251 257 262 266 269 295 270 221 209 224 188 187 188 153 200 198 248 241 273 123 283 290 315 326 328 330 345 341 359 18 75 73 74 85 72 134 162 212 229 234 205 214 226 225 218 220 229 234 237 239 241 242 240 239
220 213 214 214 213 212 216 220 216 218 217 214 216 207 212 213 219 229 226 222 221 222 226 236 240 234 234 240 247 237 221 239 252 251 253 271 271 260 258 272 279 250 201 196 211 215 170 189 171 220 296 294 201 215 225 33 20 35 31 41 44 49 56 62 72 64 59 113 207 222 209 201 226 232 255 283 283 275 269 265 258 250 245 244 242
215 211 209 207 208 206 211 214 218 220 222 221 223 224 217 215 217 223 224 223 224 223 220 228 234 226 226 224 235 212 184 217 242 244 239 244 234 231 247 226 239 45 6 330 350 13 322 312 318 326 332 271 256 276 47 36 47 64 54 55 48 42 59 62 78 89 84 74 69 67 64 67 53 42 50 58 58 51 44 38 30 16 8 5 6
215 211 209 201 203 209 212 216 215 221 221 223 225 229 226 215 216 217 217 217 222 221 220 222 226 223 219 219 222 191 183 200 222 227 229 229 214 218 221 212 175 162 167 91 41 22 348 314 325 332 344 353 348 357 32 31 26 31 97 94 71 53 72 74 54 51 63 73 85 79 68 63 65 65 65 63 59 55 54 54 53 53 53 57 63
228 218 214 212 211 209 214 211 217 219 221 220 223 226 229 226 221 219 217 219 222 219 219 220 215 217 220 222 210 188 195 204 211 208 202 205 209 210 203 190 179 182 165 171 159 229 261 280 322 339 324 308 311 321 324 353 26 195 220 185 124 76 56 77 82 72 82 80 70 65 65 67 63 62 66 63 61 61 60 56 54 56 60 62 64
251 251 234 218 213 206 213 217 220 220 217 223 222 225 226 223 217 219 221 221 222 220 222 217 213 211 215 217 205 194 201 204 205 201 188 195 201 200 201 184 174 172 171 168 188 217 214 215 282 288 236 276 251 249 260 286 308 141 85 6 137 133 92 63 74 110 87 84 79 68 58 59 64 60 62 60 49 47 53 58 57 59 59 61 65
240 236 243 262 239 219 217 219 225 220 221 219 213 208 222 224 219 222 220 223 220 217 217 220 211 209 214 213 204 200 208 211 212 207 200 198 185 194 194 171 168 180 177 185 203 229 245 246 260 238 245 242 228 271 287 266 268 294 40 54 104 124 115 84 53 76 101 97 84 71 60 54 63 54 53 52 46 43 44 50 53 55 56 56 58
248 243 239 227 235 237 234 228 223 223 223 225 223 221 214 217 215 219 218 223 221 220 218 216 217 210 216 208 217 215 212 214 213 211 210 207 204 191 177 175 182 181 187 205 216 229 251 265 263 271 269 258 266 259 258 255 184 149 155 151 159 132 103 84 70 58 43 82 90 71 52 43 64 62 51 55 45 47 45 47 53 60 55 54 54
273 273 267 254 240 231 230 234 233 225 226 229 232 231 226 224 218 216 217 221 218 216 209 210 219 214 211 208 208 222 216 213 211 199 192 193 190 179 174 169 172 171 186 208 221 230 260 266 272 272 267 274 269 241 227 257 274 257 196 155 147 148 137 122 105 87 52 45 83 84 63 36 58 69 60 51 46 50 50 52 60 58 55 55 53
255 248 253 254 252 250 244 238 234 235 237 238 233 232 228 225 226 222 216 222 218 214 210 212 213 211 204 199 198 197 212 201 202 193 183 184 168 163 165 159 146 130 123 218 233 243 242 247 261 262 309 304 352 321 316 323 313 321 320 230 158 165 120 90 103 99 64 51 94 86 75 40 51 71 67 53 55 56 60 66 63 64 64 62 61
254 255 253 251 249 241 242 249 252 246 248 249 246 243 241 236 231 229 225 220 214 215 212 210 209 208 203 192 192 190 206 207 201 180 167 164 154 164 129 112 98 84 68 60 35 266 241 245 248 257 251 276 271 235 270 21 37 316 354 26 96 105 93 82 82 98 112 139 96 82 80 47 52 72 73 56 58 60 63 64 68 69 68 65 62
252 254 250 254 247 243 241 246 254 262 256 274 271 261 251 247 245 236 241 229 224 218 218 210 205 205 200 197 188 195 191 195 171 162 132 135 133 117 83 82 88 78 78 79 80 79 68 167 180 226 180 241 284 322 340 359 336 310 97 100 103 106 99 104 111 111 97 53 96 108 84 67 66 84 77 71 69 68 63 61 63 65 65 63 61
246 242 248 261 262 261 257 245 249 252 252 263 298 292 268 253 249 243 243 240 231 234 229 220 207 198 200 200 199 193 186 179 176 161 155 141 136 121 107 95 86 91 78 59 65 70 73 75 79 73 254 262 252 260 279 289 144 100 118 120 118 110 105 102 89 99 111 136 123 86 95 99 90 85 78 76 70 68 63 61 63 67 67 65 64
273 250 247 241 254 262 254 244 249 258 257 263 289 329 311 278 252 230 221 225 223 226 236 232 225 211 200 194 195 188 162 189 178 162 154 143 140 127 118 112 109 99 77 69 70 80 87 90 82 80 56 285 296 262 220 145 112 106 104 106 108 112 109 106 111 115 81 50 60 112 112 110 105 96 95 83 79 75 69 69 61 66 68 69 69
277 264 245 239 235 237 229 227 232 250 257 221 195 260 302 174 164 205 223 229 231 230 231 227 225 217 201 195 192 183 174 182 176 157 151 148 145 136 128 126 120 100 99 97 84 81 82 82 87 85 89 89 88 87 81 82 103 121 126 116 117 125 111 105 102 96 73 69 49 93 117 115 119 114 111 96 88 83 78 76 77 70 70 69 68
268 264 258 245 226 215 221 235 231 259 273 201 201 221 223 198 197 197 208 221 232 233 238 236 239 262 269 223 201 186 182 172 163 159 158 153 149 142 139 132 123 114 116 119 101 86 79 75 74 79 79 78 77 71 67 63 50 26 169 123 133 116 100 111 115 106 101 76 45 315 112 116 130 121 112 115 91 72 80 77 78 93 93 81 74
259 255 253 246 230 185 177 218 252 266 276 266 237 250 253 222 211 205 208 214 236 243 237 219 140 189 233 256 241 228 205 173 162 164 165 161 158 149 144 126 123 128 139 137 118 105 91 79 66 65 54 59 61 65 63 60 59 54 38 57 106 116 113 119 123 120 109 61 24 333 124 136 135 147 127 116 85 70 57 58 57 61 68 77 84